www.pogodaiklimat.ru

Погода и климат >> Архив погоды >> Боливия >> Santa Rosa


ПОГОДА в Santa Rosa

  • Прогноз погоды в Santa Rosa
  • Монитор погоды в Santa Rosa
  • Климат города

АРХИВ ПОГОДЫ в Santa Rosa

Время (UTC), дата Ветер
(напр.,м/с)
 
Видим.   Явления Облачность Т
(С)
Тd
(С)
f
(%)
Тe
(С)
Тes
(С)
Комфортность P
(гПа)
Po
(гПа)
Тmin
(С)
Tmax
(С)
R
(мм)
R24
(мм)
S
(см)
12 13.11 штиль 0 15 км 6/0
[Ci]
+25.5 +22.1 81 +33 +38 очень
душно
1010.6 991.2 +23.2
15 13.11 штиль 0 15 км 5/0
[Ci fib]
+31.5 +21.5 55 +39 +63 опасность
солнечного
удара
1011.6 992.4
18 13.11 штиль 0 15 км 4/1 600 м
[Cu hum Ci fib]
+34.5 +22.3 49 +43 +65 опасность
перегрева
1008.1 989.0
21 13.11 штиль 0 15 км 1/1 600 м
[Cu hum]
+33.4 +22.0 51 +42 +47 опасность
перегрева
1005.1 986.0 +34.8
12 14.11 штиль 0 15 км 5/0
[Ci fib]
+26.8 +22.3 76 +35 +40 очень
душно
1010.0 990.5 +23.9
15 14.11 штиль 0 15 км 5/0
[Ci fib]
+32.4 +22.4 56 +42 +65 опасность
перегрева
1010.4 991.2
18 14.11 штиль 0 15 км 1/1 600 м
[Cu hum]
+34.5 +22.4 49 +43 +66 опасность
перегрева
1007.1 988.0
21 14.11 штиль 0 15 км 1/1 600 м
[Cu hum]
+35.4 +22.0 46 +44 +49 опасность
перегрева
1004.1 985.0 +35.8
12 15.11 штиль 0 15 км 8/0
[Ci]
+25.4 +22.8 86 +34 +39 очень
душно
1009.0 989.7 +22.6
15 15.11 С 7 15 км 8/5 500 м
[Cu med, cong Ci]
+30.5 +23.1 65 +41 +43 опасность
перегрева
1009.8 990.6
18 15.11 С 7 15 км 8/6 500 м
[Cb cap Ci]
+33.0 +23.7 58 +44 +46 опасность
перегрева
1006.8 987.5
21 15.11 С 3 15 км 8/3 500 м
[Cb cap Ci]
+32.0 +24.0 63 +44 +46 опасность
перегрева
1003.7 984.5 +34.6
12 16.11 С 6 15 км 8/0
[Ci]
+26.8 +23.7 83 +37 +38 очень
душно
1007.8 988.4 +22.5
15 16.11 С 8 15 км 8/5 500 м
[Cu hum Ci]
+24.0 +20 +22 1009.3 990.0
18 16.11 С 6 15 км 5/5 500 м
[Cu med, cong]
+33.4 +24.3 59 +46 +49 опасность
перегрева
1006.7 987.6
21 16.11 С 3 15 км 5/1 500 м
[Cu hum Ci fib]
+33.4 +24.3 59 +46 +48 опасность
перегрева
1003.7 984.6 +34.8
12 17.11 штиль 0 15 км 8/0
[Ci]
+26.8 +23.7 83 +37 +42 очень
душно
1008.7 989.6 +25.3
15 17.11 С 8 15 км 8/5 500 м
[Cb cap Ci]
+31.4 +23.2 62 +42 +44 опасность
перегрева
1010.0 990.7
18 17.11 С 8 8000 м осадки на расстоянии 8/5 500 м
[Cb cap Ci]
+31.0 +23.6 65 +42 +44 опасность
перегрева
1005.3 986.0
21 17.11 С 5 15 км 8/5 500 м
[Cb cap Ci]
+29.0 +23.6 73 +40 +41 очень
душно
1003.2 984.0 +33.0
12 18.11 С 6 15 км 8/5 450 м
[Sc Ci]
+25.5 +22.5 83 +33 +34 очень
душно
1008.4 989.1 +22.8
15 18.11 С 8 15 км 8/8 500 м
[Cb cap]
+27.8 +22.6 73 +37 +37 очень
душно
1009.3 990.0
18 18.11 С 6 8000 м осадки на расстоянии 6/6 500 м
[Cb cap]
+30.4 +23.1 65 +41 +43 опасность
перегрева
1005.4 986.3
21 18.11 С 8 15 км 4/4 500 м
[Cb cap]
+31.5 +23.5 63 +43 +43 опасность
перегрева
1002.0 983.0 +31.8
12 19.11 штиль 0 8000 м осадки на расстоянии {дождь} 10/8 150 м
[Sc As op]
+23.0 +22.7 98 +32 +32 очень
душно
1010.3 990.7 +22.7 6
15 19.11 штиль 0 8000 м осадки на расстоянии {гроза} 10/6 300 м
[Cb cap As op]
+24.4 +22.5 89 +32 +34 очень
душно
1011.4 991.7
18 19.11 ЮВ 4 8000 м слабый дождь 10/8 300 м
[Sc As op]
+22.5 +22.5 100 +30 +31 очень
душно
1009.3 989.6 6

 

Местоположение метеостанции Santa Rosa (Боливия): широта -14.17 долгота -66.90 высота над уровнем моря 225 м.

В архиве по умолчанию представлена погода в Santa Rosa за последнюю неделю. Архивные данные за месяц целиком и за предыдущие месяцы, начиная с января 2011 года, Вы можете получить, выбрав интересующий диапазон дат из раскрывающегося списка и нажав кнопку "Ввод!".

Внимание! Время в таблицах - всемирное. Для получения местного времени необходимо прибавить поправку, которая в Santa Rosa равна -4 ч.

Смотрите также архив погоды в соседних городах и на ближайших метеорологических станциях:

Погода в Reyes (Боливия) (54 км)
Погода в San Borja (Боливия) (77 км)
Погода в Rurrenabaque (Боливия) (78 км)
Погода в San Ignacio De Moxo (Боливия) (162 км)
Погода в Santa Ana (Боливия) (165 км)
Погода в Baures (Боливия) (165 км)
Погода в Trinidad (Боливия) (226 км)
Погода в San Ramon (Боливия) (257 км)
Погода в San Joaquin (Боливия) (257 км)
Погода в Ovejuyo (Боливия) (289 км)

Пояснения к столбцам:

Ветер - указаны скорость ветра в м/с - средняя за 10 мин, порывы в срок и между сроками (в фигурных скобках) и направление, откуда дует ветер: С - северный, СВ - северо-восточный, В - восточный, ЮВ - юго-восточный, Ю - южный, ЮЗ - юго-западный, З - западный, СЗ - северо-западный.
Видимость - горизонтальная дальность видимости в метрах или километрах. При видимости от 1 до 10 км при отсутствии осадков обычно наблюдается дымка, при ухудшении видимости до 1 км и менее - туман. В сухую погоду видимость может ухудшаться дымом, пылью или мглою.
Явления - указаны атмосферные явления, наблюдавшиеся в срок или в последний час перед сроком; фигурными скобками обозначены явления, наблюдавшиеся между сроками (за 1-3 часа до срока); квадратными скобками обозначены град или гололедные отложения с указанием их диаметра в мм.
Облачность - указаны через наклонную черту общая и нижняя облачность в баллах и высота нижней границы облаков в метрах; квадратными скобками обозначены формы облаков: Ci - перистые, Cs - перисто-слоистые, Cc - перисто-кучевые, Ac - высококучевые, As - высокослоистые, Sc - слоисто-кучевые, Ns - слоисто-дождевые, Cu - кучевые, Cb - кучево-дождевые. Подробнее классификацию облаков см. в Атласе облаков (PDF).
T - Температура воздуха - температура, измеренная на высоте 2 м над землей.
Td - Температура точки росы - температура, при понижении до которой содержащийся в воздухе водяной пар достигнет насыщения.
f - Относительная влажность воздуха - влажноcть воздуха, измеренная на высоте 2 м над землей.
Te - Эффективная температура - температура, которую ощущает одетый по сезону человек в тени. Характеристика душности погоды. При расчете учитывается влияние влажности воздуха и скорости ветра на теплоощущения человека.
Tes - Эффективная температура на солнце - температура, которую ощущает человек, с поправкой на солнечный нагрев. Характеристика знойности погоды. Зависит от высоты солнца над горизонтом, облачности и скорости ветра. Ночью, в пасмурную погоду, а также при ветре 12 м/с и более поправка равна нулю.
P - Атмосферное давление - приведенное к уровню моря атмосферное давление.
Po - Атмосферное давление - измеренное на уровне метеостанции атмосферное давление.
Tmin - Минимальная температура - минимум температуры воздуха на высоте 2 м над землей.
Tmax - Максимальная температура - максимум температуры воздуха на высоте 2 м над землей.
R - Количество осадков - Количество выпавших осадков за период времени, мм. При наведении курсора мыши на число - период времени, за который выпало указанное количество осадков.
R24 - Количество осадков - Количество выпавших осадков за 24 часа, мм.
S - Снежный покров - Высота снежного покрова, см. При наведении курсора мыши на число - состояние снежного покрова и степень покрытия местности в баллах.